Location: Cincinnati Observatory Center
(39.1389°N, 84.4225°W)
Time: 22:21:29
(UTC-04:00)

Amateur Radio Satellites - All Passes

Search period start: 26 May 2017 21:51
Search period end: 27 May 2017 21:51
Location: Cincinnati Observatory Center, 39.1389°N, 84.4225°W

Satellite Date Start Highest point End Downlink Frequencies (MHz)
Time Altitude Azimuth
ISS 26 May 21:54:25 21:57:38 50° 326° (NW) 22:00:51 437.550
ZACube-1 26 May 21:56:00 22:00:01 45° 262° (W) 22:04:10 437.345
DELFI C3 26 May 22:01:22 22:05:02 36° 72° (ENE) 22:08:42 145.870
EO-88 26 May 22:03:43 22:06:45 25° 70° (ENE) 22:09:48 145.990 - 145.960
CUBEBUG 2 26 May 22:13:16 22:13:37 10° 271° (W) 22:13:59 437.445
UWE-3 26 May 22:21:23 22:23:33 14° 269° (W) 22:25:43 435.000/436.395/437.385
UNISAT 6 26 May 22:38:57 22:42:01 17° 93° (E) 22:45:06 437.425
PRISM 26 May 22:44:05 22:47:11 21° 95° (E) 22:50:16 437.425
FO-29 26 May 22:44:48 22:50:26 29° 96° (E) 22:56:33 435.910
M-CUBED/EXP-1 PRIME 26 May 22:47:02 22:50:10 41° 292° (WNW) 22:53:15 437.505
LO-87 26 May 22:48:46 22:49:42 11° 66° (ENE) 22:50:38 145.935 - 145.965
Oscar 11 26 May 22:52:54 22:55:32 16° 268° (W) 22:58:09 .
Tancredo 1 26 May 23:00:03 23:01:36 13° 342° (NNW) 23:03:10 437.200
SO-50 26 May 23:07:27 23:11:59 62° 118° (ESE) 23:16:30 436.795
ESTCUBE 1 26 May 23:09:03 23:11:42 16° 65° (ENE) 23:14:22 437.505/2401.250
ISS 26 May 23:33:04 23:34:45 13° 344° (NNW) 23:36:25 437.550
DELFI C3 26 May 23:37:30 23:39:55 15° 267° (W) 23:42:20 145.870
EO-88 26 May 23:37:48 23:40:24 18° 266° (W) 23:43:00 145.990 - 145.960
TIGRISAT 26 May 23:42:29 23:47:07 78° 102° (ESE) 23:51:48 435.000
SPROUT 26 May 23:57:54 23:59:28 12° 64° (ENE) 00:01:03 437.525
VELOX 1 27 May 00:04:10 00:06:41 15° 65° (ENE) 00:09:14 145.980
AIST 2D 27 May 00:09:26 00:11:53 17° 94° (E) 00:14:20 435.315
UNISAT 6 27 May 00:14:30 00:18:53 44° 288° (WNW) 00:23:19 437.425
PRISM 27 May 00:18:58 00:22:27 27° 290° (WNW) 00:25:52 437.425
LO-87 27 May 00:19:20 00:22:43 42° 261° (W) 00:26:07 145.935 - 145.965
FO-29 27 May 00:29:20 00:35:33 50° 289° (WNW) 00:42:29 435.910
DX 1 27 May 00:39:38 00:41:36 13° 63° (ENE) 00:43:32 434.975-435.025
EO-79 27 May 00:40:57 00:44:18 22° 95° (E) 00:47:39 145.935-145.965
ESTCUBE 1 27 May 00:43:39 00:48:04 51° 260° (W) 00:52:30 437.505/2401.250
YUBILEINY 27 May 00:49:13 00:55:29 23° 80° (E) 01:01:46 435.215
SO-50 27 May 00:49:48 00:52:50 17° 316° (NW) 00:55:51 436.795
TIGRISAT 27 May 01:21:58 01:23:09 11° 298° (WNW) 01:24:21 435.000
NANOSAT C BR1 27 May 01:25:21 01:29:35 67° 101° (E) 01:33:49 145.865
POLYITAN 1 27 May 01:30:07 01:34:25 84° 105° (ESE) 01:38:42 437.675
SPROUT 27 May 01:30:41 01:34:50 59° 259° (W) 01:39:02 437.525
50 SAT 27 May 01:31:03 01:34:29 71° 76° (ENE) 01:37:56 437.505
DUCHIFAT 1 27 May 01:35:55 01:40:10 79° 104° (ESE) 01:44:24 145.980
VELOX 1 27 May 01:38:27 01:42:44 49° 260° (W) 01:47:01 145.980
QB50P2 27 May 01:38:50 01:43:06 70° 285° (WNW) 01:47:21 145.880/145.840
AIST 2D 27 May 01:42:07 01:45:04 25° 289° (WNW) 01:48:00 435.315
RS-15 27 May 01:52:29 02:02:50 36° 105° (ESE) 02:13:25 29.354- 29.394
BUGSAT 1 27 May 01:53:12 01:57:00 35° 98° (E) 02:00:50 437.445
UKube-1 27 May 02:04:36 02:08:53 76° 76° (ENE) 02:13:13 .
DX 1 27 May 02:12:59 02:17:15 57° 259° (WSW) 02:21:34 434.975-435.025
Tancredo 1 27 May 02:13:14 02:15:17 16° 22° (NNE) 02:17:20 437.200
EO-79 27 May 02:16:22 02:20:02 29° 290° (WNW) 02:23:43 145.935-145.965
Gurwin Techsat 1B 27 May 02:36:36 02:40:43 22° 94° (E) 02:44:47 435.225
YUBILEINY 27 May 02:42:40 02:51:20 72° 279° (W) 03:00:08 435.215
ISS 27 May 02:47:20 02:49:55 21° 25° (NNE) 02:52:30 437.550
ITUPSAT 1 27 May 02:49:01 02:52:28 20° 65° (ENE) 02:55:57 437.325
Oscar 19 27 May 02:55:41 03:00:46 57° 101° (E) 03:05:48 437.125/150
MOZHAYETS 4 27 May 03:02:28 03:04:58 15° 64° (ENE) 03:07:29
NANOSAT C BR1 27 May 03:03:42 03:04:43 11° 297° (WNW) 03:05:44 145.865
BEESAT 27 May 03:21:05 03:25:34 43° 71° (ENE) 03:30:05 436.000
BUGSAT 1 27 May 03:29:16 03:32:05 18° 293° (WNW) 03:34:56 437.445
Tancredo 1 27 May 03:48:18 03:51:22 77° 218° (SW) 03:54:24 437.200
O/OREOS (USA 219) 27 May 03:50:42 03:53:49 18° 100° (E) 03:56:56 437.305
ITAMSAT 1 27 May 03:59:11 04:02:40 18° 93° (E) 04:06:08 435.822/435.867
RS-15 27 May 04:02:26 04:14:30 68° 306° (NW) 04:26:53 29.354- 29.394
AO-7 27 May 04:12:30 04:19:31 29° 96° (E) 04:26:27 .
Gurwin Techsat 1B 27 May 04:15:47 04:20:48 43° 290° (WNW) 04:25:47 435.225
ISS 27 May 04:23:25 04:26:37 55° 222° (SW) 04:29:49 437.550
ITUPSAT 1 27 May 04:25:30 04:29:59 41° 261° (W) 04:34:31 437.325
Oscar 19 27 May 04:36:17 04:39:35 17° 297° (WNW) 04:42:53 437.125/150
MOZHAYETS 4 27 May 04:37:07 04:41:37 56° 260° (W) 04:46:11
PCSat 27 May 04:44:17 04:49:21 38° 54° (NE) 04:54:22 145.827
AO-85 27 May 04:46:03 04:49:43 29° 114° (ESE) 04:53:12 145.980
YUBILEINY 27 May 04:46:06 04:49:53 13° 301° (WNW) 04:53:41 435.215
BEESAT 27 May 05:00:13 05:03:31 19° 266° (W) 05:06:50 436.000
JUGNU 27 May 05:05:42 05:07:04 11° 176° (S) 05:08:26 437.505
CUBESAT XI-V 27 May 05:24:00 05:28:43 80° 75° (ENE) 05:33:26 437.345
KKS-1 27 May 05:27:02 05:31:26 75° 76° (ENE) 05:35:52 437.445
O/OREOS (USA 219) 27 May 05:28:32 05:32:52 41° 296° (WNW) 05:37:14 437.305
BEESAT 3 27 May 05:36:49 05:40:18 31° 114° (ESE) 05:43:51 437.485
ITAMSAT 1 27 May 05:37:21 05:42:24 52° 289° (WNW) 05:47:27 435.822/435.867
STARS 27 May 05:56:41 06:01:00 67° 74° (ENE) 06:05:20 437.465
AO-7 27 May 06:04:28 06:12:39 61° 293° (WNW) 06:20:49 .
RS-15 27 May 06:20:10 06:29:56 26° 334° (NNW) 06:39:46 29.354- 29.394
AO-85 27 May 06:26:38 06:30:03 24° 310° (NW) 06:33:22 145.980
PCSat 27 May 06:27:57 06:32:35 29° 252° (WSW) 06:37:10 145.827
XW-2B 27 May 06:40:23 06:41:16 11° 91° (E) 06:42:09 145.730 - 145.750
NUDT-PHONESAT 27 May 06:50:04 06:50:52 11° 91° (E) 06:51:39 437.300
XW-2F 27 May 06:51:25 06:53:36 15° 92° (E) 06:55:46 145.980 - 146.000
XW-2C 27 May 06:52:40 06:55:06 16° 93° (E) 06:57:31 145.795 - 145.815
BEESAT 2 27 May 06:54:42 06:58:39 85° 124° (SE) 07:02:42 435.950
KAITUO 1B 27 May 06:58:10 07:00:15 14° 92° (E) 07:02:20 145.475/437.950
STRAND 1 27 May 07:00:36 07:03:51 17° 63° (ENE) 07:07:07 437.568
BEESAT 3 27 May 07:14:43 07:17:54 23° 311° (NW) 07:21:09 437.485
LilacSat-2 27 May 07:30:19 07:34:07 50° 99° (E) 07:37:52 437.200
DOVE 4 27 May 07:34:16 07:38:27 81° 283° (WNW) 07:42:45 437.250
SRMSAT 27 May 07:34:43 07:35:56 11° 175° (S) 07:37:09 437.500
CUTE-I 27 May 07:36:07 07:41:16 46° 99° (E) 07:46:23 437.470
SO-50 27 May 07:39:47 07:44:03 40° 53° (NE) 07:48:19 436.795
M-CUBED/EXP-1 PRIME 27 May 07:58:40 08:01:00 15° 62° (ENE) 08:03:13 437.505
AO-7 27 May 08:00:14 08:03:42 13° 314° (NW) 08:07:12 .
XW-2D 27 May 08:03:57 08:07:46 59° 285° (WNW) 08:11:31 145.860 - 145.880
XW-2B 27 May 08:11:59 08:15:43 48° 286° (WNW) 08:19:24 145.730 - 145.750
NUDT-PHONESAT 27 May 08:21:23 08:25:01 46° 286° (WNW) 08:28:37 437.300
XW-2F 27 May 08:24:20 08:27:51 35° 288° (WNW) 08:31:20 145.980 - 146.000
CUBEBUG 2 27 May 08:25:13 08:27:52 15° 92° (E) 08:30:32 437.445
XW-2C 27 May 08:25:55 08:29:22 32° 288° (WNW) 08:32:47 145.795 - 145.815
NO-84 27 May 08:27:13 08:30:55 27° 126° (SE) 08:34:34 435.350 FM
SEEDS 27 May 08:29:06 08:32:10 19° 94° (E) 08:35:11 437.485
KAITUO 1B 27 May 08:30:54 08:34:23 35° 288° (WNW) 08:37:50 145.475/437.950
UWE-3 27 May 08:35:31 08:36:48 11° 90° (E) 08:38:07 435.000/436.395/437.385
BEESAT 2 27 May 08:35:43 08:37:00 11° 318° (NW) 08:38:17 435.950
STRAND 1 27 May 08:37:34 08:42:33 56° 260° (W) 08:47:35 437.568
RS-15 27 May 08:40:04 08:48:39 21° 11° (N) 08:57:04 29.354- 29.394
XW-2A 27 May 08:42:07 08:45:18 35° 98° (E) 08:48:28 145.665 - 145.685
HO-68 27 May 08:56:53 09:04:02 62° 102° (ESE) 09:11:07 435.675
LilacSat-2 27 May 09:06:39 09:07:55 11° 295° (WNW) 09:09:11 437.200
CUTE 1.7 + AOD 2 27 May 09:15:44 09:20:00 74° 283° (WNW) 09:24:13 437.475
CUTE-I 27 May 09:16:57 09:20:58 22° 295° (WNW) 09:24:59 437.470
SO-50 27 May 09:20:52 09:24:14 21° 249° (WSW) 09:27:37 436.795
SRMSAT 27 May 09:23:18 09:24:09 10° 186° (S) 09:24:59 437.500
AAUSAT CUBESAT 2 27 May 09:26:11 09:30:06 40° 98° (E) 09:33:58 437.432
M-CUBED/EXP-1 PRIME 27 May 09:31:00 09:35:07 47° 255° (WSW) 09:38:59 437.505
AO-73 27 May 09:31:00 09:34:39 23° 94° (E) 09:38:18 145.935
PRISM 27 May 09:33:09 09:35:21 14° 65° (ENE) 09:37:34 437.425
UNISAT 6 27 May 09:38:04 09:39:57 13° 63° (ENE) 09:41:51 437.425
ZACube-1 27 May 09:44:57 09:49:11 37° 98° (E) 09:53:25 437.345
CUBEBUG 2 27 May 10:00:14 10:04:42 51° 286° (WNW) 10:09:15 437.445
SEEDS 27 May 10:04:08 10:07:53 32° 289° (WNW) 10:11:36 437.485
NO-84 27 May 10:04:11 10:08:23 44° 322° (NW) 10:12:29 435.350 FM
UWE-3 27 May 10:09:04 10:13:39 68° 285° (WNW) 10:18:16 435.000/436.395/437.385
XW-2A 27 May 10:16:16 10:17:42 12° 293° (WNW) 10:19:07 145.665 - 145.685
Oscar 11 27 May 10:39:01 10:43:23 78° 283° (WNW) 10:47:43 .
TIGRISAT 27 May 10:39:59 10:44:09 56° 74° (ENE) 10:48:24 435.000
FO-29 27 May 10:41:17 10:46:23 64° 73° (ENE) 10:51:39 435.910
HO-68 27 May 10:45:33 10:51:13 26° 300° (WNW) 10:56:51 435.675
RS-15 27 May 10:54:10 11:05:44 44° 43° (NE) 11:16:44 29.354- 29.394
AAUSAT CUBESAT 2 27 May 11:02:44 11:05:12 16° 294° (WNW) 11:07:40 437.432
PRISM 27 May 11:06:16 11:10:15 45° 261° (W) 11:14:13 437.425
EO-88 27 May 11:06:29 11:09:57 37° 98° (E) 11:13:22 145.990 - 145.960
AO-73 27 May 11:06:50 11:10:52 32° 289° (WNW) 11:14:54 145.935
UNISAT 6 27 May 11:11:57 11:16:08 56° 260° (W) 11:20:25 437.425
DELFI C3 27 May 11:13:39 11:17:35 70° 101° (ESE) 11:21:28 145.870
ZACube-1 27 May 11:21:47 11:25:12 21° 292° (WNW) 11:28:36 437.345
EO-79 27 May 11:33:11 11:35:35 15° 65° (ENE) 11:37:58 145.935-145.965
NO-84 27 May 11:44:53 11:46:52 13° 340° (NNW) 11:48:50 435.350 FM
LO-87 27 May 11:48:18 11:50:19 14° 93° (E) 11:52:22 145.935 - 145.965
AIST 2D 27 May 12:14:22 12:17:53 87° 261° (W) 12:21:26 435.315
NANOSAT C BR1 27 May 12:16:08 12:20:02 40° 72° (ENE) 12:23:58 145.865
TIGRISAT 27 May 12:19:50 12:21:13 11° 270° (W) 12:22:36 435.000
POLYITAN 1 27 May 12:21:15 12:25:19 52° 74° (ENE) 12:29:25 437.675
DUCHIFAT 1 27 May 12:26:18 12:30:17 47° 73° (ENE) 12:34:19 145.980
FO-29 27 May 12:29:49 12:32:05 13° 270° (W) 12:34:21 435.910
QB50P2 27 May 12:29:51 12:34:01 73° 76° (ENE) 12:38:14 145.880/145.840
ESTCUBE 1 27 May 12:37:14 12:41:22 35° 97° (E) 12:45:28 437.505/2401.250
EO-88 27 May 12:41:28 12:43:16 13° 293° (WNW) 12:45:04 145.990 - 145.960
BUGSAT 1 27 May 12:42:20 12:45:20 21° 68° (ENE) 12:48:22 437.445
YUBILEINY 27 May 12:54:12 13:02:52 56° 78° (ENE) 13:11:29 435.215
RS-15 27 May 13:06:56 13:18:45 62° 248° (WSW) 13:29:57 29.354- 29.394
EO-79 27 May 13:06:57 13:10:56 44° 261° (W) 13:14:58 145.935-145.965
SPROUT 27 May 13:17:45 13:21:15 24° 95° (E) 13:24:44 437.525
AO-85 27 May 13:17:53 13:20:52 19° 48° (NE) 13:23:56 145.980
LO-87 27 May 13:20:42 13:23:50 29° 288° (WNW) 13:26:57 145.935 - 145.965
VELOX 1 27 May 13:29:32 13:33:28 32° 97° (E) 13:37:23 145.980
NANOSAT C BR1 27 May 13:53:29 13:55:55 15° 267° (W) 13:58:23 145.865
UKube-1 27 May 13:54:20 13:56:25 13° 92° (E) 13:58:31 .
BEESAT 3 27 May 13:55:02 13:57:31 16° 45° (NE) 14:00:00 437.485
Gurwin Techsat 1B 27 May 13:56:25 14:01:05 33° 68° (ENE) 14:05:47 435.225
POLYITAN 1 27 May 13:59:49 14:01:24 12° 269° (W) 14:02:58 437.675
O/OREOS (USA 219) 27 May 14:00:33 14:04:30 29° 61° (ENE) 14:08:24 437.305
DX 1 27 May 14:02:33 14:06:08 25° 96° (E) 14:09:42 434.975-435.025
DUCHIFAT 1 27 May 14:04:18 14:06:13 13° 268° (W) 14:08:07 145.980
Oscar 19 27 May 14:11:10 14:16:21 74° 74° (ENE) 14:21:34 437.125/150
ESTCUBE 1 27 May 14:14:34 14:17:55 21° 293° (WNW) 14:21:16 437.505/2401.250
BUGSAT 1 27 May 14:17:07 14:20:32 27° 263° (W) 14:24:00 437.445
50 SAT 27 May 14:27:43 14:31:07 88° 104° (ESE) 14:34:30 437.505
YUBILEINY 27 May 14:51:48 14:59:08 31° 276° (W) 15:06:28 435.215
SPROUT 27 May 14:53:29 14:57:05 27° 291° (WNW) 15:00:41 437.525
AO-85 27 May 14:57:32 15:01:22 40° 243° (WSW) 15:05:24 145.980
NO-84 27 May 15:02:49 15:05:12 15° 23° (NNE) 15:07:29 435.350 FM
VELOX 1 27 May 15:06:22 15:09:43 22° 293° (WNW) 15:13:04 145.980
AO-7 27 May 15:10:20 15:17:42 38° 61° (ENE) 15:25:07 .
BEESAT 2 27 May 15:13:30 15:17:14 34° 52° (NE) 15:20:56 435.950
ITAMSAT 1 27 May 15:15:54 15:20:05 25° 66° (ENE) 15:24:16 435.822/435.867
BEESAT 27 May 15:24:25 15:26:04 12° 90° (E) 15:27:41 436.000
RS-15 27 May 15:26:32 15:28:23 10° 268° (W) 15:30:14 29.354- 29.394
UKube-1 27 May 15:28:33 15:32:43 49° 287° (WNW) 15:36:51 .
BEESAT 3 27 May 15:31:30 15:35:25 52° 243° (WSW) 15:39:16 437.485
Gurwin Techsat 1B 27 May 15:36:22 15:40:59 30° 264° (W) 15:45:37 435.225
DX 1 27 May 15:38:37 15:42:15 27° 291° (WNW) 15:45:52 434.975-435.025
O/OREOS (USA 219) 27 May 15:40:06 15:43:45 25° 258° (WSW) 15:47:23 437.305
Oscar 19 27 May 15:54:11 15:56:11 12° 270° (W) 15:58:11 437.125/150
ITUPSAT 1 27 May 16:26:38 16:31:22 53° 101° (E) 16:36:03 437.325
MOZHAYETS 4 27 May 16:33:14 16:37:31 36° 97° (E) 16:41:46
NO-84 27 May 16:39:37 16:43:23 83° 47° (NE) 16:46:45 435.350 FM
BEESAT 2 27 May 16:51:46 16:54:45 20° 249° (WSW) 16:57:42 435.950
ITAMSAT 1 27 May 16:54:34 16:59:19 37° 262° (W) 17:04:08 435.822/435.867
BEESAT 27 May 16:59:30 17:04:16 68° 286° (WNW) 17:09:00 436.000
AO-7 27 May 17:02:18 17:10:13 49° 259° (WSW) 17:18:13 .
KKS-1 27 May 17:20:19 17:22:55 15° 93° (E) 17:25:31 437.445
CUBESAT XI-V 27 May 17:22:27 17:25:59 21° 94° (E) 17:29:28 437.345
STARS 27 May 17:48:48 17:50:47 13° 92° (E) 17:52:47 437.465
ITUPSAT 1 27 May 18:05:45 18:08:44 17° 296° (WNW) 18:11:42 437.325
MOZHAYETS 4 27 May 18:10:54 18:14:25 22° 293° (WNW) 18:17:56
LilacSat-2 27 May 18:11:31 18:14:28 22° 69° (ENE) 18:17:27 437.200
DOVE 4 27 May 18:38:12 18:42:51 88° 77° (ENE) 18:47:15 437.250
XW-2D 27 May 18:43:37 18:47:20 52° 74° (ENE) 18:51:04 145.860 - 145.880
XW-2B 27 May 18:51:32 18:55:18 64° 76° (ENE) 18:59:06 145.730 - 145.750
KKS-1 27 May 18:55:27 18:59:41 45° 288° (WNW) 19:03:54 437.445
CUTE-I 27 May 18:56:46 19:02:01 68° 74° (ENE) 19:07:19 437.470
NUDT-PHONESAT 27 May 18:58:59 19:02:39 60° 75° (ENE) 19:06:21 437.300
CUBESAT XI-V 27 May 18:59:11 19:03:25 35° 289° (WNW) 19:07:36 437.345
XW-2F 27 May 19:03:18 19:07:05 88° 87° (E) 19:10:55 145.980 - 146.000
XW-2C 27 May 19:05:13 19:09:01 83° 258° (WSW) 19:12:52 145.795 - 145.815
KAITUO 1B 27 May 19:08:59 19:12:45 85° 73° (ENE) 19:16:33 145.475/437.950
XW-2A 27 May 19:14:48 19:15:23 10° 66° (ENE) 19:15:57 145.665 - 145.685
SEEDS 27 May 19:20:51 19:22:43 13° 64° (ENE) 19:24:35 437.485
STARS 27 May 19:23:08 19:27:25 53° 287° (WNW) 19:31:42 437.465
HO-68 27 May 19:24:17 19:30:52 41° 65° (ENE) 19:37:29 435.675
PCSat 27 May 19:24:42 19:29:45 42° 111° (ESE) 19:34:51 145.827
LilacSat-2 27 May 19:45:28 19:48:36 24° 265° (W) 19:51:48 437.200
CUTE 1.7 + AOD 2 27 May 20:06:40 20:10:54 66° 75° (ENE) 20:15:10 437.475
AAUSAT CUBESAT 2 27 May 20:15:21 20:18:41 24° 69° (ENE) 20:22:02 437.432
Tancredo 1 27 May 20:19:38 20:22:36 46° 137° (SE) 20:25:34 437.200
AO-73 27 May 20:26:22 20:28:51 15° 65° (ENE) 20:31:22 145.935
CUTE-I 27 May 20:39:55 20:42:32 14° 269° (W) 20:45:10 437.470
ZACube-1 27 May 20:40:03 20:43:25 24° 68° (ENE) 20:46:52 437.345
XW-2A 27 May 20:44:34 20:47:43 39° 261° (W) 20:50:55 145.665 - 145.685
STRAND 1 27 May 20:48:59 20:54:02 54° 101° (E) 20:59:04 437.568
SEEDS 27 May 20:53:44 20:57:54 55° 260° (W) 21:02:06 437.485
CUBEBUG 2 27 May 20:57:02 21:01:09 70° 259° (W) 21:05:24 437.445
ISS 27 May 21:02:17 21:05:34 84° 143° (SE) 21:08:53 437.550
UWE-3 27 May 21:04:41 21:08:51 82° 79° (E) 21:13:10 435.000/436.395/437.385
PCSat 27 May 21:08:38 21:13:15 28° 309° (NW) 21:17:54 145.827
HO-68 27 May 21:12:03 21:18:33 37° 262° (W) 21:25:08 435.675
Oscar 11 27 May 21:32:09 21:36:27 68° 76° (ENE) 21:40:48 .
EO-88 27 May 21:44:19 21:46:23 15° 67° (ENE) 21:48:29 145.990 - 145.960
